Starlink 32485

operational
NORAD ID: 62143 Int'l Des: 2024-224 Owner: SPXS Country: US Constellation: starlink
LEOCIRCULAR

Über Starlink 32485

Beschreibung wird geladen...

Live-Position

3D-Globus wird geladen...

Nächste Überflüge

Höhenverlauf

Altitude vs Time

uPlot chart will show altitude changes over time

Zweizeiliger Elementsatz

1 62143U 24224E 25351.17426007 .00012507 00000-0 46284-3 0 9995
2 62143 43.0010 267.2895 0001515 268.9466 91.1212 15.27607744 59393
Epoch: 17. Dez. 2025 • Age: 13 hours

Aktueller Status

Höhe 486.7 km
Geschwindigkeit 7.62 km/s
Subsatellitenpunkt -19.40°S, 114.88°E
Startdatum 30. Nov. 2024
Alter 1 years
Typ internet

Technische Details

Klassifizierung Payload
Masse 730.00 kg
Trockenmasse 700.00 kg
Gesamtmasse 730.00 kg
Länge 0.30 m
Durchmesser 4.10 m
Spannweite 29.00 m
Form Box + pan
Hersteller SPXS
Bus-Typ Starlink V2M
Phasenstatus In Orbit
Besitzer/Staat SPXS/US

Große Konstellationen

Loading constellations...